SCP
0 0 0 0 0 0 0 0 0 0 0 0 0 0 -0 -0 -0 0 0 0 0 -0 -0 -0 -0 -0 0 0 0 0 0 0 0 0 0 0 0 0 0 0 0 0 0
0 0 0 0 0 0 0 0 0 0 0 0 0 0 0 -0 -0 0 0 0 0 -0 -0 -0 -0 -0 0 0 0 0 0 0 0 0 0 0 0 0 0 0 0 0 0
0 0 0 0 0 0 0 0 0 0 0 0 0 0 0 0 -0 0 0 0 0 -0 -0 -0 -0 -0 0 0 0 0 0 0 0 0 0 0 0 0 0 0 0 0 0
0 0 0 0 0 0 0 0 0 0 0 0 0 0 0 0 0 0 0 0 0 -0 -0 -0 -0 -0 0 0 0 0 0 0 0 0 0 0 0 0 0 0 0 0 0
0 0 0 0 0 0 0 0 0 0 0 0 0 0 0 0 0 0 0 0 -0 -0 -0 0 0 0 0 0 0 0 0 0 0 0 0 0 0 0 0 0 0 0 0
0 0 0 0 0 0 0 0 0 0 0 0 0 0 0 0 0 -0 0 0 -0 -0 -0 -0 -0 0 0 0 0 0 0 0 0 0 0 0 0 0 0 0 0 0 0
0 0 0 0 0 0 0 0 0 0 0 0 0 0 0 0 0 -0 -0 -0 -0 -0 -0 -0 -0 -0 -0 0 0 0 0 0 0 0 0 0 0 0 0 0 0 0 0
0 0 0 0 0 0 0 0 0 0 0 0 0 0 0 0 0 -0 -0 -0 -0 -0 -0 -0 -0 -0 -0 0 0 0 0 0 0 0 0 0 0 0 0 0 0 0 0
0 0 0 0 0 0 0 0 0 0 0 0 0 0 0 0 0 0 -0 -0 -0 -0 -0 -0 -0 -0 -0 -0 0 0 0 0 0 0 0 0 0 0 0 0 0 0 0
0 0 0 0 0 0 0 0 0 0 0 0 0 0 0 0 0 0 -0 -0 -0 -0 -0 -0 -0 -0 -0 -0 0 0 0 0 0 0 0 0 0 0 0 0 0 0 0
0 0 0 0 0 0 0 0 0 0 0 0 0 0 0 0 0 0 0 -0 -0 -0 -0 -0 -0 -0 -0 -0 0 0 0 0 0 0 0 0 0 0 0 0 0 0 0
0 0 0 0 0 0 0 0 0 0 0 0 0 0 0 0 0 0 0 0 -0 -0 -0 -0 -0 -0 -0 -0 0 0 0 0 0 0 0 0 0 0 0 0 0 0 0
0 0 0 0 0 0 0 0 0 0 0 0 0 0 0 0 0 0 0 0 -0 -0 -0 -0 -0 -0 -0 -0 0 0 0 0 0 0 0 0 0 0 0 0 0 0 0
0 0 0 0 0 0 0 0 0 0 0 0 0 0 0 0 0 0 0 0 0 -0 -0 -0 -0 -0 -0 0 0 0 0 0 0 0 0 0 0 0 0 0 0 0 0
0 0 0 0 0 0 0 0 0 0 0 0 0 0 0 0 0 0 0 0 0 0 0 0 -0 -0 0 0 0 0 0 0 0 0 0 0 0 0 0 0 0 0 0
0 0 0 0 0 0 0 0 0 0 0 0 0 0 0 0 0 0 0 0 0 0 0 0 0 0 0 0 0 0 0 0 0 0 0 0 0 0 0 0 0 0 0
0 0 0 0 0 0 0 0 0 0 0 0 0 0 0 0 0 0 0 0 0 0 0 0 0 0 0 0 0 0 0 0 0 0 0 0 0 0 0 0 0 0 0
0 0 0 0 0 0 0 0 0 0 0 0 0 0 0 0 0 0 0 0 0 0 0 0 0 0 0 0 0 0 0 0 0 0 0 0 0 0 0 0 0 0 0
0 0 0 0 0 0 0 0 0 0 0 0 0 0 0 0 0 0 0 0 0 0 0 0 0 0 0 0 0 0 0 0 0 0 0 0 0 0 0 0 0 0 0
0 0 0 0 0 0 0 0 0 0 0 0 0 0 0 0 0 0 0 0 0 0 0 0 0 0 0 0 0 0 0 0 0 0 0 0 0 0 0 0 0 0 0
0 0 0 0 0 0 0 0 0 0 0 0 0 0 0 0 0 0 0 0 0 0 0 0 0 0 0 0 0 0 0 0 0 0 0 0 0 0 0 0 0 0 0
0 0 0 0 0 0 0 0 0 0 0 0 0 0 0 0 0 0 0 0 0 0 0 0 0 0 0 0 0 0 0 0 0 0 0 0 0 0 0 0 0 0 0
0 0 0 0 0 0 0 0 0 0 0 0 0 0 0 0 0 0 0 0 0 0 0 0 0 0 0 0 0 0 0 0 0 0 0 0 0 0 0 0 0 0 0
0 0 0 0 0 0 0 0 0 0 0 0 0 0 0 0 0 0 0 0 0 0 0 0 0 0 0 0 0 0 0 0 0 0 0 0 0 0 0 0 0 0 0
0 0 0 0 0 0 0 0 0 0 0 0 0 0 0 0 0 0 0 0 0 0 0 0 0 0 0 0 0 0 0 0 0 0 0 0 0 0 0 0 0 0 0
0 0 0 0 0 0 0 0 0 0 0 0 0 0 0 0 0 0 0 0 0 0 0 0 0 0 0 0 0 0 0 0 0 0 0 0 0 0 0 0 0 0 0
Wind_Speed
1 1 1 1 1 1 1 0 1 2 1 1 1 2 2 2 1 2 4 9 8 8 9 9 9 9 9 9 9 9 9 8 8 7 7 7 7 7 7 7 7 7 7
1 1 1 1 1 1 1 0 1 1 1 1 1 2 1 1 2 1 3 7 9 9 9 9 9 9 9 9 9 9 8 8 7 7 7 6 6 7 7 7 7 7 7
1 1 1 1 1 1 0 0 0 0 1 2 2 1 1 2 2 1 2 3 6 9 10 9 9 9 9 9 9 9 8 7 7 7 6 6 6 6 6 7 7 7 7
1 1 1 1 1 1 1 0 0 0 1 1 1 1 2 2 2 2 1 2 3 6 9 10 9 9 8 8 9 8 7 7 7 7 6 6 6 5 6 6 6 7 7
1 2 1 1 2 1 1 1 1 0 1 1 2 2 2 2 2 2 1 2 3 4 6 9 10 8 8 8 8 8 7 7 7 6 6 6 5 5 5 6 6 6 6
2 2 1 1 2 1 1 1 1 0 1 1 2 3 2 2 1 2 1 2 3 4 5 6 6 8 9 8 8 8 7 7 7 7 6 6 5 5 5 6 6 6 6
2 2 2 1 1 1 1 0 0 1 1 1 2 3 3 3 2 2 1 1 3 3 4 4 3 4 6 9 7 6 6 6 6 6 6 5 5 5 6 5 6 6 6
2 1 1 1 1 1 1 0 0 1 0 0 0 1 2 3 3 2 2 2 2 3 3 4 4 3 3 4 6 7 5 5 5 6 5 5 5 5 6 5 5 6 6
1 1 1 1 0 1 0 1 1 1 0 0 1 2 1 1 2 3 3 2 2 2 2 3 4 3 3 2 4 6 5 4 4 4 5 5 5 5 5 5 5 5 6
0 0 0 1 1 1 0 2 1 1 2 1 1 1 2 1 1 3 3 3 3 3 2 2 3 3 3 2 3 5 6 4 4 3 3 4 4 5 6 6 6 5 5
0 0 0 0 1 1 1 2 1 1 1 1 0 1 1 1 1 1 2 3 3 2 2 2 2 2 3 3 3 4 6 4 3 3 3 3 3 4 4 5 6 7 7
0 0 0 0 1 1 0 1 1 1 1 1 1 0 1 1 2 1 2 2 2 2 2 2 2 3 3 3 3 6 6 4 3 3 3 3 3 4 4 5 5 5 6
0 0 0 0 0 0 0 0 0 1 1 1 1 1 1 1 0 1 1 2 1 2 2 2 2 2 2 2 3 7 6 5 4 3 3 3 4 4 4 4 5 5 5
1 0 0 0 0 0 1 1 0 1 0 0 1 1 1 0 0 1 1 2 2 2 2 2 2 2 2 2 3 6 5 6 5 4 4 4 3 3 4 4 4 4 5
1 1 0 0 0 0 0 0 1 1 0 1 1 1 2 1 1 1 1 2 2 2 2 3 2 3 2 2 3 3 3 6 6 5 5 4 4 4 3 3 4 4 4
1 1 1 1 1 1 1 1 1 1 1 1 1 1 2 2 1 2 2 2 2 3 2 1 2 2 2 2 4 4 3 8 7 6 6 5 4 4 4 4 4 4 4
1 1 2 2 2 2 1 1 1 1 1 2 2 2 2 2 1 2 2 2 2 3 3 2 1 2 2 3 2 3 4 4 5 8 7 6 5 4 4 4 4 4 4
1 1 2 2 2 2 2 2 2 2 2 3 2 2 2 2 2 2 2 3 2 2 3 3 2 2 3 3 3 4 3 4 3 7 8 7 6 5 5 5 4 4 4
1 1 2 2 2 2 2 2 3 3 3 3 3 3 3 3 3 2 3 3 3 3 3 4 3 2 3 3 3 3 3 3 4 5 9 9 7 7 6 6 5 5 5
2 2 2 2 2 2 3 3 3 3 3 3 3 3 3 3 3 3 3 3 3 3 3 4 4 3 3 3 3 3 3 3 3 3 4 5 7 9 8 7 7 6 5
2 2 2 2 2 2 2 2 3 3 3 3 3 4 3 2 2 3 3 3 3 3 4 4 4 4 3 3 4 3 3 3 3 3 3 4 5 5 7 8 9 7 6
2 2 2 2 3 1 1 2 4 4 4 4 4 4 4 4 4 4 4 4 4 5 5 5 5 5 4 4 3 3 3 3 3 2 3 3 3 4 4 5 6 8 7
2 3 3 3 3 1 0 1 3 5 4 4 4 4 3 2 3 3 4 6 6 7 7 7 7 6 5 4 4 5 4 4 4 3 4 4 4 4 4 3 8 9 8
2 3 3 3 3 2 2 2 3 5 3 3 3 3 3 3 2 2 4 5 5 5 7 7 7 7 6 4 4 5 5 5 5 5 5 5 4 4 3 3 8 9 8
2 2 2 2 2 2 2 2 4 3 2 3 3 3 4 3 0 2 4 5 5 5 4 4 4 4 3 3 4 5 5 5 5 4 4 5 4 3 4 4 5 9 9
2 2 1 1 1 1 2 2 3 3 2 3 3 3 2 2 1 2 5 5 6 5 4 3 4 5 6 7 8 8 6 6 5 4 3 4 4 4 4 3 3 4 6
Wind_Direction
2 26 3 345 341 21 144 101 81 93 99 113 95 76 71 90 108 127 133 146 154 158 163 164 163 162 162 161 163 160 159 158 161 162 165 168 171 171 175 180 184 187 184
21 349 276 329 331 347 9 354 85 117 117 95 90 84 71 79 100 120 135 147 157 163 165 165 166 164 164 166 167 164 164 162 162 162 167 170 170 175 178 183 188 189 189
358 293 326 287 331 342 26 250 110 156 139 136 115 98 82 64 95 127 141 153 157 159 162 163 164 163 165 167 168 167 164 164 167 168 170 171 173 172 177 182 185 185 187
311 291 296 298 311 281 264 147 254 68 100 125 114 102 99 101 117 123 138 147 152 154 157 157 159 161 162 163 166 162 160 163 166 170 174 174 174 172 175 179 183 186 188
293 277 287 343 272 277 283 285 75 8 111 111 132 122 110 109 115 115 112 120 120 136 144 151 157 159 161 162 162 161 164 167 168 172 175 174 174 174 176 180 182 185 189
304 291 240 241 273 286 298 346 27 34 76 118 118 98 92 98 106 101 127 125 125 137 142 144 160 159 158 161 164 166 170 175 176 177 180 179 177 175 177 181 184 185 188
315 297 299 185 244 236 303 312 248 157 141 128 136 134 132 132 116 101 110 122 126 131 135 141 152 153 156 158 160 166 174 177 179 179 184 186 187 185 185 185 189 193 195
305 280 325 278 216 189 162 262 303 307 86 86 256 171 164 156 150 127 131 135 122 137 140 137 135 144 153 152 138 154 171 182 185 189 191 191 195 199 197 191 193 197 198
323 335 8 324 321 257 192 233 228 255 261 139 344 313 276 108 127 134 132 127 129 130 133 130 142 144 155 148 148 152 150 153 176 186 189 192 197 201 201 203 208 209 204
328 342 9 345 307 310 328 247 216 244 256 227 136 350 333 6 246 140 147 141 145 144 146 158 144 151 163 162 137 123 142 152 159 170 176 182 189 203 207 208 216 218 212
334 4 31 334 273 287 319 312 322 264 250 275 250 153 143 167 234 215 155 146 152 153 160 171 162 170 168 176 179 139 142 154 161 172 176 182 192 202 207 213 219 217 214
143 38 25 1 295 321 345 295 278 245 295 319 312 289 217 180 170 193 164 161 160 155 158 166 184 177 179 184 167 128 148 160 173 192 198 195 199 206 211 217 219 218 213
185 78 339 323 325 15 30 17 141 316 309 333 300 284 270 291 206 204 182 160 169 161 158 191 189 191 187 176 149 148 159 165 176 191 202 205 212 212 210 215 214 216 213
274 133 217 265 282 54 61 67 100 133 106 303 306 312 293 279 220 221 219 189 193 195 184 195 187 189 192 190 140 181 166 164 175 186 198 202 206 209 213 215 217 216 213
223 171 185 233 261 92 22 69 69 62 145 218 221 214 248 221 220 224 233 235 229 221 204 181 199 176 198 189 155 194 186 158 175 188 197 199 204 211 216 219 221 218 215
250 191 183 191 186 181 189 220 171 147 211 224 251 264 268 249 223 220 220 232 253 254 255 179 188 183 191 207 170 199 198 162 181 193 200 204 207 212 217 219 227 229 225
241 211 201 203 199 194 201 206 229 202 222 221 226 218 236 270 247 231 224 223 231 238 243 248 183 163 197 235 191 215 209 209 186 184 197 206 212 217 223 219 221 227 231
244 221 213 214 213 203 212 220 228 222 228 228 222 217 227 222 225 256 251 235 230 237 237 246 235 203 209 220 213 233 231 222 222 170 187 202 214 216 217 217 218 220 226
243 241 224 222 228 232 231 232 241 236 234 237 235 227 224 226 228 232 245 241 235 230 229 234 238 222 221 213 210 226 237 242 243 183 184 197 206 210 214 216 216 219 222
229 244 242 232 241 245 247 246 248 243 240 239 238 239 239 234 234 244 241 239 241 241 232 238 240 229 225 209 218 226 230 223 240 228 207 204 196 201 209 210 211 213 216
234 242 250 236 243 240 265 285 268 250 242 241 240 238 234 230 262 270 272 255 245 244 239 235 240 239 230 220 226 235 240 242 232 235 235 226 208 212 201 206 209 208 209
239 243 246 242 242 250 35 315 287 264 249 242 243 244 226 207 205 216 241 256 265 255 256 253 249 247 242 240 237 242 246 246 248 215 248 250 239 236 227 217 178 185 200
231 245 246 238 234 206 147 255 277 271 256 251 246 249 252 229 231 240 216 219 234 241 249 262 265 266 260 246 239 239 242 257 266 254 247 252 242 242 237 196 165 183 196
244 243 249 242 238 183 161 216 265 249 254 253 251 249 252 260 278 287 268 253 247 239 235 240 255 263 266 259 240 245 247 246 248 238 236 254 248 249 241 210 168 183 196
250 243 245 245 235 186 160 205 261 251 244 254 259 254 253 251 92 306 268 263 260 254 229 231 259 267 281 258 248 243 233 236 241 230 215 243 248 255 250 229 180 183 196
244 252 247 249 229 198 134 181 257 264 257 258 242 238 202 251 260 245 260 260 259 265 266 245 239 236 236 226 216 230 239 241 249 251 215 233 245 250 254 235 219 192 200